ランキン彗星

C/2021 C1 ( Rankin )

English version
Home page
Updated on September 18, 2021

---------------------------------------------------------------------

・ プロフィール

発見日 2021年2月11日
発見光度 19.7等
発見者 David Rankin (Mt. Lemmon Survey)

・ 写真集

・ 軌道要素

Epoch 2021 July 5.0 TT = JDT 2459400.5
T 2020 Dec. 7.13226 TT                                  Rudenko
q   3.4813059            (2000.0)            P               Q
z  +0.0000673      Peri.  336.31059     -0.87059209     -0.48668605
 +/-0.0000001      Node   186.89239     -0.29715794     +0.40324703
e   0.9997657      Incl.  143.04035     -0.39213081     +0.77493775
From 173 observations 2021 Feb. 11-July 3, mean residual 0".5.

・ 光度変化

        m1 = 11.0 + 5 logΔ + 10.0 log r

---------------------------------------------------------------------

軌道要素はM.P.E.C. 2021-P47に掲載されたものです。
光度グラフはComet for Windowsで作成したものです。

---------------------------------------------------------------------

Copyright(C) Seiichi Yoshida (comet@aerith.net). All rights reserved.